#timestamp,LO_Frequency,Hit,StdDev 
1545397215.4,286047002.6,N
1545397235.2,286047000.5,N
1545397255.1,286047002.8,N
1545397256.0,286047002.8,N
1545397275.8,286047000.4,N
1545397295.7,286047002.4,N
1545397315.5,286047000.3,N
1545397335.3,286047001.6,N
1545397355.2,286047002.2,N
1545397375.0,286046999.9,N
1545397375.9,286046999.9,N
1545397395.8,286047000.1,N
1545397415.6,286047000.3,N
1545397435.4,286047000.3,N
1545397455.3,286047001.7,N
1545397475.1,286047002.7,N
1545397495.8,286046999.7,N
1545397515.7,286047001.4,N
1545397535.5,286047002.2,N
1545397555.4,286047000.5,N
1545397575.2,286047001.0,N
1545397595.0,286046999.7,N
1545397595.9,286046999.7,N
1545397615.8,286047002.8,N
1545397635.6,286046999.8,N
1545397655.4,286047002.1,N
1545397675.3,286047000.9,N
1545397695.1,286047002.8,N
1545397715.9,286046999.7,N
1545397735.7,286047001.6,N
1545397755.5,286047002.1,N
1545397775.4,286046999.8,N
1545397795.2,286047000.4,N
1545397815.0,286047001.6,N
1545397835.5,286047001.4,N
1545397855.4,286047001.7,N
1545397875.2,286047004.1,Y
1545397895.0,286046999.7,P
1545397895.9,286046999.7,N
1545397915.8,286047000.3,N
1545397935.6,286047000.7,N
1545397955.4,286046998.6,N
1545397975.3,286047000.1,N
1545397995.1,286047000.7,N
1545398015.9,286046998.8,N
1545398035.7,286046999.4,N
1545398055.5,286047000.0,N
1545398075.4,286047002.0,N
1545398095.2,286047002.7,N
1545398115.0,286047002.8,N
1545398116.0,286047002.8,N
1545398135.8,286046999.8,N
1545398155.6,286046999.9,N
1545398175.5,286047001.2,N
1545398195.3,286047000.9,N
1545398215.1,286046998.4,N
1545398235.9,286046998.3,N
1545398255.7,286046998.4,N
1545398275.6,286046999.3,N
1545398295.4,286046996.6,N
1545398315.2,286046997.3,N
1545398335.1,286047001.2,N
1545398336.0,286047001.2,N
1545398355.8,286046998.4,N
1545398375.6,286046997.8,N
1545398395.5,286046998.0,N
1545398415.3,286046994.9,Y
1545398435.2,286046996.7,P
1545398455.9,286046997.7,N
1545398475.7,286046997.4,N
1545398495.6,286046997.1,N
1545398515.4,286046997.1,N
1545398535.3,286046996.6,Y
1545398555.1,286047000.6,P
1545398556.0,286047000.6,N
1545398575.8,286047002.0,N
1545398595.7,286047002.6,N
1545398615.5,286046999.8,N
1545398635.3,286047002.5,N
1545398655.2,286047001.4,N
1545398675.0,286047001.7,N
1545398675.9,286047001.7,N
1545398695.8,286047002.7,N
1545398715.6,286046999.8,N
1545398735.4,286047002.6,N
1545398755.3,286047002.2,N
1545398775.1,286047002.1,N
1545398795.9,286047001.7,N
1545398815.7,286047001.7,N
1545398835.5,286047002.2,N
1545398855.4,286046999.8,N
1545398875.2,286047000.1,N
1545398895.0,286047000.8,N
1545398895.9,286047000.8,N
1545398915.8,286046998.5,N
1545398935.6,286047000.4,N
1545398955.5,286047002.7,N
1545398975.3,286047002.8,N
1545398995.1,286047001.3,N
1545399015.9,286047003.1,N
1545399035.7,286047003.3,N
1545399055.5,286047003.6,N
1545399075.4,286047001.3,N
1545399095.2,286047003.2,N
1545399115.1,286047003.8,Y
1545399116.0,286047003.8,P
1545399135.8,286047001.7,N
1545399155.6,286047002.0,N
1545399175.5,286047004.0,Y
1545399195.3,286047002.7,P
1545399215.2,286047001.2,P
1545399235.9,286046998.5,N
1545399255.7,286046998.7,N
1545399275.6,286046999.5,N
1545399295.4,286046998.3,N
1545399315.2,286046998.7,N
1545399335.1,286046999.9,N
1545399336.0,286046999.9,N
1545399355.8,286047000.3,N
1545399375.7,286047000.3,N
1545399395.5,286046998.1,N
1545399415.3,286047000.5,N
1545399435.2,286047000.1,N
1545399455.0,286047000.5,N
1545399455.9,286047000.5,N
1545399475.8,286047000.8,N
1545399495.6,286046998.1,N
1545399515.4,286047001.2,N
1545399535.3,286046998.9,N
1545399555.1,286046998.8,N
1545399575.8,286046998.4,N
1545399595.7,286047001.2,N
1545399615.5,286046998.9,N
1545399635.4,286046998.7,N
1545399655.2,286046999.4,N
1545399675.0,286046999.2,N
1545399676.0,286046999.2,N
1545399695.8,286046999.6,N
1545399715.6,286046996.5,N
1545399735.5,286046997.3,N
1545399755.3,286046997.5,N
1545399775.2,286046995.1,Y
1545399795.9,286046999.3,P
1545399815.7,286046998.1,P
1545399835.6,286046998.1,P
1545399855.4,286047000.2,N
1545399875.2,286047000.5,N
1545399895.1,286047000.9,N
1545399896.0,286047000.9,N
1545399915.8,286046998.6,N
1545399935.7,286046999.5,N
1545399955.6,286047000.2,N
1545399975.5,286046998.8,N
1545399995.3,286047001.2,N
1545400015.2,286046998.3,N
1545400035.9,286046999.4,N
1545400055.7,286046998.9,N
1545400075.6,286047001.0,N
1545400095.4,286046999.8,N
1545400115.2,286047000.5,N
1545400135.1,286047001.0,N
1545400136.0,286047001.0,N
1545400155.8,286047000.7,N
1545400175.7,286046998.9,N
1545400195.5,286047000.7,N
1545400215.4,286046999.9,N
1545400235.2,286046999.8,N
1545400255.0,286047002.2,N
1545400255.9,286047002.2,N
1545400275.8,286047002.1,N
1545400295.6,286046999.7,N
1545400315.4,286047002.6,N
1545400335.3,286047001.6,N
1545400355.1,286047000.5,N
1545400375.9,286046999.9,N
1545400395.7,286047000.5,N
1545400415.5,286047002.3,N
1545400435.4,286046999.9,N
1545400455.2,286047000.1,N
1545400475.0,286047000.5,N
1545400475.9,286047000.5,N
1545400495.8,286047000.9,N
1545400515.6,286047000.7,N
1545400535.5,286047000.1,N
1545400555.3,286047002.6,N
1545400575.1,286047000.5,N
1545400595.9,286046998.4,N
1545400615.7,286046996.9,Y
1545400635.5,286046996.9,P
1545400655.4,286046997.0,N
1545400675.2,286046996.7,N
1545400695.1,286046997.5,N
1545400696.0,286046997.5,N
1545400715.8,286046997.3,N
1545400735.6,286046997.4,N
1545400755.5,286046999.5,N
1545400775.3,286046998.3,N
1545400795.2,286047000.8,N
